Weather History for Block Island, RI

Change the Weather History Date:

Thursday, July 4, 2013

  Actual Average Record
Temperature  
Mean Temperature 73 °F -  
Max Temperature 77 °F 74 °F 89 °F (2002)
Min Temperature 69 °F 61 °F 51 °F (1979)
Cooling Degree Days 8    
Growing Degree Days 23 (Base 50)    
Moisture  
Dew Point 68 °F    
Average Humidity 88    
Maximum Humidity 94    
Minimum Humidity 78    
Precipitation  
Precipitation 0.00 in - - ()
Sea Level Pressure  
Sea Level Pressure 30.22 in    
Wind  
Wind Speed 15 mph (SW)    
Max Wind Speed 21 mph    
Max Gust Speed 26 mph    
Visibility 5 miles    
Events      
Averages and records for this station are not official NWS values.
T = Trace of Precipitation, MM = Missing Value Source: NWS Daily Summary

Daily Weather History Graph

Daily Weather History Graph

Search for Another Location

Airport:

Trip Planner

Search our weather history database for the weather conditions in past years. The results will help you decide how hot, cold, wet, or windy it might be!

Date:

Astronomy

Jul. 04, 2013 Rise Set
Actual Time 5:19 AM EDT 8:22 PM EDT
Civil Twilight 4:45 AM EDT 8:55 PM EDT
Nautical Twilight 4:03 AM EDT 9:38 PM EDT
Astronomical Twilight 3:12 AM EDT 10:28 PM EDT
Moon 2:34 AM EDT (7/4) 5:23 PM EDT (7/4)
Length of Visible Light 16h 09m
Length of Day
15h 03m
Waning Crescent, 11% of the Moon is Illuminated
Jul 4
Waning Crescent
Jul 8
New
Jul 15
First Quarter
Jul 22
Full
Jul 29
Last Quarter

Hourly Weather History & Observations

Time (EDT) Temp. Dew Point Humidity Pressure Visibility Wind Dir Wind Speed Gust Speed Precip Events Conditions
12:15 AM 71.6 °F 69.8 °F 94% 30.24 in 5.0 mi SW 12.7 mph 20.7 mph N/A   Overcast
12:35 AM 71.6 °F 69.8 °F 94% 30.23 in 5.0 mi SW 15.0 mph - N/A   Overcast
12:55 AM 71.6 °F 69.8 °F 94% 30.23 in 5.0 mi SW 15.0 mph 20.7 mph N/A   Overcast
1:15 AM 71.6 °F 68.0 °F 88% 30.23 in 4.0 mi SW 15.0 mph - N/A   Overcast
1:35 AM 69.8 °F 68.0 °F 94% 30.23 in 3.0 mi SW 12.7 mph 18.4 mph N/A   Overcast
1:55 AM 69.8 °F 68.0 °F 94% 30.22 in 4.0 mi SW 15.0 mph 20.7 mph N/A   Overcast
2:15 AM 69.8 °F 68.0 °F 94% 30.22 in 5.0 mi SW 12.7 mph 19.6 mph N/A   Overcast
2:35 AM 69.8 °F 68.0 °F 94% 30.22 in 5.0 mi SW 15.0 mph - N/A   Overcast
2:55 AM 69.8 °F 68.0 °F 94% 30.22 in 6.0 mi WSW 12.7 mph - N/A   Overcast
3:15 AM 69.8 °F 66.2 °F 88% 30.23 in 5.0 mi West 8.1 mph - N/A   Overcast
3:35 AM 69.8 °F 66.2 °F 88% 30.23 in 5.0 mi WSW 11.5 mph - N/A   Overcast
3:55 AM 69.8 °F 66.2 °F 88% 30.22 in 1.5 mi WSW 13.8 mph - N/A   Overcast
4:15 AM 69.8 °F 68.0 °F 94% 30.22 in 0.5 mi WSW 13.8 mph - N/A   Overcast
4:35 AM 69.8 °F 68.0 °F 94% 30.23 in 0.5 mi WSW 12.7 mph - N/A   Overcast
4:55 AM 69.8 °F 68.0 °F 94% 30.24 in 0.5 mi WSW 12.7 mph - N/A   Overcast
5:15 AM 69.8 °F 68.0 °F 94% 30.24 in 0.2 mi WSW 15.0 mph - N/A   Overcast
5:35 AM 69.8 °F 68.0 °F 94% 30.24 in 0.2 mi WSW 13.8 mph 18.4 mph N/A   Overcast
5:55 AM 69.8 °F 66.2 °F 88% 30.24 in 0.2 mi WSW 12.7 mph - N/A   Overcast
6:15 AM 69.8 °F 66.2 °F 88% 30.24 in 0.2 mi WSW 12.7 mph - N/A   Overcast
6:35 AM 69.8 °F 68.0 °F 94% 30.25 in 0.2 mi WSW 15.0 mph - N/A   Overcast
6:55 AM 69.8 °F 68.0 °F 94% 30.25 in 0.2 mi WSW 15.0 mph - N/A   Overcast
7:15 AM 69.8 °F 68.0 °F 94% 30.26 in 0.2 mi WSW 15.0 mph - N/A   Overcast
7:35 AM 69.8 °F 68.0 °F 94% 30.26 in 0.5 mi WSW 12.7 mph - N/A   Overcast
7:55 AM 69.8 °F 68.0 °F 94% 30.27 in 0.5 mi WSW 11.5 mph - N/A   Overcast
8:15 AM 69.8 °F 68.0 °F 94% 30.27 in 0.8 mi WSW 11.5 mph - N/A   Overcast
8:35 AM 71.6 °F 68.0 °F 88% 30.27 in 0.8 mi WSW 12.7 mph - N/A   Overcast
8:55 AM 71.6 °F 68.0 °F 88% 30.27 in 1.8 mi WSW 11.5 mph - N/A   Overcast
9:15 AM 71.6 °F 68.0 °F 88% 30.26 in 4.0 mi WSW 12.7 mph - N/A   Overcast
9:35 AM 73.4 °F 69.8 °F 88% 30.26 in 10.0 mi SW 13.8 mph - N/A   Overcast
9:55 AM 73.4 °F 68.0 °F 83% 30.26 in 10.0 mi WSW 13.8 mph - N/A   Overcast
10:15 AM 73.4 °F 68.0 °F 83% 30.26 in 10.0 mi WSW 13.8 mph - N/A   Overcast
10:35 AM 75.2 °F 69.8 °F 83% 30.26 in 10.0 mi WSW 16.1 mph - N/A   Overcast
10:55 AM 75.2 °F 69.8 °F 83% 30.26 in 10.0 mi WSW 12.7 mph - N/A   Overcast
11:15 AM 75.2 °F 69.8 °F 83% 30.25 in 10.0 mi SW 15.0 mph - N/A   Mostly Cloudy
11:35 AM 75.2 °F 69.8 °F 83% 30.25 in 10.0 mi WSW 13.8 mph - N/A   Clear
11:55 AM 77.0 °F 69.8 °F 78% 30.24 in 10.0 mi WSW 17.3 mph - N/A   Clear
12:15 PM 75.2 °F 69.8 °F 83% 30.24 in 10.0 mi WSW 15.0 mph - N/A   Clear
12:35 PM 77.0 °F 69.8 °F 78% 30.24 in 10.0 mi SW 16.1 mph 20.7 mph N/A   Clear
12:55 PM 77.0 °F 69.8 °F 78% 30.24 in 10.0 mi SW 16.1 mph - N/A   Partly Cloudy
1:15 PM 77.0 °F 69.8 °F 78% 30.23 in 10.0 mi WSW 17.3 mph - N/A   Clear
1:35 PM 77.0 °F 69.8 °F 78% 30.23 in 10.0 mi WSW 18.4 mph 24.2 mph N/A   Clear
1:55 PM 75.2 °F 69.8 °F 83% 30.22 in 10.0 mi WSW 16.1 mph 23.0 mph N/A   Mostly Cloudy
2:15 PM 75.2 °F 69.8 °F 83% 30.22 in 10.0 mi SW 17.3 mph 24.2 mph N/A   Overcast
2:35 PM 77.0 °F 69.8 °F 78% 30.22 in 10.0 mi SW 19.6 mph 25.3 mph N/A   Mostly Cloudy
2:55 PM 77.0 °F 69.8 °F 78% 30.21 in 10.0 mi SW 18.4 mph 25.3 mph N/A   Partly Cloudy
3:15 PM 77.0 °F 69.8 °F 78% 30.20 in 7.0 mi SW 19.6 mph 26.5 mph N/A   Clear
3:35 PM 77.0 °F 69.8 °F 78% 30.20 in 10.0 mi SW 20.7 mph 26.5 mph N/A   Clear
3:55 PM 77.0 °F 69.8 °F 78% 30.20 in 10.0 mi SW 17.3 mph 26.5 mph N/A   Clear
4:15 PM 75.2 °F 69.8 °F 83% 30.20 in 10.0 mi WSW 17.3 mph 25.3 mph N/A   Mostly Cloudy
4:35 PM 75.2 °F 69.8 °F 83% 30.20 in 10.0 mi SW 18.4 mph 24.2 mph N/A   Overcast
4:55 PM 73.4 °F 69.8 °F 88% 30.19 in 3.0 mi SW 19.6 mph 24.2 mph N/A   Overcast
5:15 PM 73.4 °F 68.0 °F 83% 30.19 in 2.5 mi SW 17.3 mph 21.9 mph N/A   Overcast
5:35 PM 71.6 °F 68.0 °F 88% 30.18 in 0.8 mi SW 18.4 mph 24.2 mph N/A   Overcast
5:55 PM 71.6 °F 66.2 °F 83% 30.19 in 0.5 mi SW 16.1 mph - N/A   Overcast
6:15 PM 69.8 °F 66.2 °F 88% 30.18 in 0.2 mi SW 16.1 mph 23.0 mph N/A   Overcast
6:35 PM 69.8 °F 66.2 °F 88% 30.18 in 0.5 mi SW 18.4 mph 23.0 mph N/A   Overcast
6:55 PM 69.8 °F 66.2 °F 88% 30.18 in 0.2 mi SW 17.3 mph 23.0 mph N/A   Overcast
7:15 PM 69.8 °F 66.2 °F 88% 30.18 in 0.2 mi SW 15.0 mph 20.7 mph N/A   Overcast
7:35 PM 69.8 °F 66.2 °F 88% 30.19 in 0.2 mi SW 16.1 mph 25.3 mph N/A   Overcast
7:55 PM 69.8 °F 66.2 °F 88% 30.19 in 0.2 mi SW 17.3 mph 21.9 mph N/A   Overcast
8:15 PM 69.8 °F 66.2 °F 88% 30.19 in 0.2 mi SW 17.3 mph 24.2 mph N/A   Overcast
8:35 PM 69.8 °F 66.2 °F 88% 30.19 in 0.2 mi SW 13.8 mph 21.9 mph N/A   Overcast
8:55 PM 69.8 °F 68.0 °F 94% 30.19 in 0.5 mi SW 15.0 mph 23.0 mph N/A   Overcast
9:15 PM 69.8 °F 68.0 °F 94% 30.20 in 0.8 mi SW 16.1 mph - N/A   Overcast
9:35 PM 71.6 °F 68.0 °F 88% 30.20 in 2.5 mi SW 17.3 mph 23.0 mph N/A   Overcast
9:55 PM 71.6 °F 68.0 °F 88% 30.20 in 4.0 mi SW 17.3 mph 24.2 mph N/A   Overcast
10:15 PM 69.8 °F 68.0 °F 94% 30.20 in 5.0 mi SW 16.1 mph 20.7 mph N/A   Overcast
10:35 PM 69.8 °F 68.0 °F 94% 30.20 in 3.0 mi SW 17.3 mph 23.0 mph N/A   Overcast
10:55 PM 71.6 °F 68.0 °F 88% 30.19 in 8.0 mi SW 18.4 mph 23.0 mph N/A   Overcast
11:15 PM 69.8 °F 68.0 °F 94% 30.19 in 8.0 mi SW 18.4 mph 24.2 mph N/A   Mostly Cloudy
11:35 PM 69.8 °F 68.0 °F 94% 30.20 in 8.0 mi WSW 16.1 mph 23.0 mph N/A   Overcast
11:55 PM 69.8 °F 68.0 °F 94% 30.20 in 7.0 mi SW 16.1 mph 23.0 mph N/A   Overcast